ראשי / חיפושים אחרונים

חיפושים אחרונים

לוחית
סוג רכב
דגם
שנה
תאריך חיפוש
שעת חיפוש
4227450 פולקסווגן גרמניה BORA 2003 04/09/2026 11:33:18
58393001 הונדה בריטניה CIVIC 5D 1.5 2019 04/09/2026 11:33:17
56560301 ימהה יפן - 2018 04/09/2026 11:33:17
50381303 קלאב קאר ארהב" - 2024 04/09/2026 11:33:15
1761866 מזדה יפן MAZDA 3 2008 04/09/2026 11:33:15
2947073 מרצדס בנץ גרמנ E200 CDI 2010 04/09/2026 11:33:15
5610671 מזדה יפן MAZDA 3 2011 04/09/2026 11:33:13
32821803 ניסאן מקסיקו SENTRA 2023 04/09/2026 11:33:11
37386901 פולקסווגן גרמניה T6 TRANSPORTER 2018 04/09/2026 11:33:11
75092202 אופל ספרד COMBO 2022 04/09/2026 11:33:11
77222301 מיצובישי יפן ASX 2019 04/09/2026 11:33:09
35400603 קיה קוריאה הדרומית NIRO PLUS PHEV 2023 04/09/2026 11:33:05
41016502 קיה סלובקיה SPORTAGE 2021 04/09/2026 11:33:05
6085513 סקניה-הולנד - 2013 04/09/2026 11:33:05
3177139 מ א ן גרמניה - 2016 04/09/2026 11:33:03
71671602 סוזוקי יפן JIMNY 2021 04/09/2026 11:33:01
32288502 טויוטה טורקיה COROLLA HSD SDN 2020 04/09/2026 11:33:00
75950602 סיאט ספרד CUPRA 2022 04/09/2026 11:32:58
12430203 סאן יאנג טיואן - 2022 04/09/2026 11:32:56
20121701 ניסאן יפן X-TRAIL 2018 04/09/2026 11:32:54
10856202 סיטרואן ספרד BERLINGO 2020 04/09/2026 11:32:53
1381356 רנו ספרד MEGANE 2004 04/09/2026 11:32:51
9780511 קיה קוריאה הדרומית PICANTO 2014 04/09/2026 11:32:50
24884001 איסוזו תאילנד PICK-UP 2017 04/09/2026 11:32:50
28451704 פולקסווגן פולי - 2026 04/09/2026 11:32:49
8708470 סקודה צ'כיה FABIA 2010 04/09/2026 11:32:47
70488603 סיטרואן ספרד BERLINGO 2024 04/09/2026 11:32:45
9452628 סוזוקי יפן JIMNY 2005 04/09/2026 11:32:43
9735773 מרצדס בנץ ארהב - 2012 04/09/2026 11:32:43
5297932 לקסוס יפן LEXUS NX200T 2015 04/09/2026 11:32:42
6863464 מזדה יפן MAZDA 3 2008 04/09/2026 11:32:41
4263860 יונדאי קוריאה הדרומית ACCENT 2006 04/09/2026 11:32:39
2163568 סיטרואן צרפת C4 2009 04/09/2026 11:32:39
1134766 שברולט ד.קוריא AVEO 2009 04/09/2026 11:32:38
1897632 מיצובישי תאילנד SPACE STAR 2015 04/09/2026 11:32:37
66053402 טויוטה צרפת YARIS 2021 04/09/2026 11:32:36
14618703 טויוטה טורקיה COROLLA SDN HSD 2022 04/09/2026 11:32:36
49919801 סקודה צ'כיה OCTAVIA 2018 04/09/2026 11:32:35
32361203 קוואסאקי תאילנ - 2023 04/09/2026 11:32:35
3729717 הונדה יפן CIVIC 1998 04/09/2026 11:32:35
1591527 פיאט איטליה פיאט פונטו 57 S 1996 04/09/2026 11:32:34
85905603 פולקסווגן גרמניה TIGUAN 2024 04/09/2026 11:32:34
1953128 בומברדיה מקסיק - 2022 04/09/2026 11:32:31
1205430 סובארו יפן XV 2014 04/09/2026 11:32:29
3911280 סקודה צ'כיה SUPERB 2017 04/09/2026 11:32:27
85720101 אלפא רומיאו איטליה GIULIA 2020 04/09/2026 11:32:25
27098704 דיפאל סין DEEPAL S07 2025 04/09/2026 11:32:24
5897937 מרצדס גרמניה C180 2016 04/09/2026 11:32:24
60442503 קרייזלר מכסיקו - 2024 04/09/2026 11:32:24
33047001 בומברדיה מקסיק - 2024 04/09/2026 11:32:23
6354701 דימלרקריזלר-גר E200K 2005 04/09/2026 11:32:22
2628485 קיה סלובקיה SPORTAGE 2017 04/09/2026 11:32:21
49315404 פיאט ספרד DOBLO 2026 04/09/2026 11:32:17
4961008 הונדה בריטניה CR-V 2017 04/09/2026 11:32:16
4780111 יונדאי קוריאה הדרומית I35 2013 04/09/2026 11:32:13
22549603 טויוטה ארהב" SIENNA HYBRID 2024 04/09/2026 11:32:12
4679481 יונדאי קוריאה I25 2017 04/09/2026 11:32:11
89041703 מזדה תאילנד MAZDA 2 2024 04/09/2026 11:32:07
31024801 סקניה-הולנד - 2021 04/09/2026 11:32:06
1437037 טויוטה יפן RAV 4 2016 04/09/2026 11:32:02
85479903 ב מ וו גרמניה 520I 2024 04/09/2026 11:31:57
3351570 לקסוס יפן LEXUS IS250 2010 04/09/2026 11:31:57
9753775 טויוטה ארהב" - 2014 04/09/2026 11:31:53
67292202 אוטוקאר תורכיה - 2021 04/09/2026 11:31:51
16249002 טויוטה צרפת YARIS 2020 04/09/2026 11:31:51
3349950 ניסאן ספרד MPD SERENA 2002 04/09/2026 11:31:49
3309432 איסוזו יפן - 2015 04/09/2026 11:31:43
14631404 סובארו יפן SOLTERRA 2024 04/09/2026 11:31:43
9733987 פולאריס פולין - 2020 04/09/2026 11:31:43
1245032 יונדאי קוריאה הדרומית I35 2015 04/09/2026 11:31:43
1096960 טויוטה יפן COROLLA 2006 04/09/2026 11:31:41
82994301 ניסאן בריטניה QASHQAI 2019 04/09/2026 11:31:40
5079276 יונדאי צ'כיה I30 2011 04/09/2026 11:31:37
3302129 רנו צרפת מגאן סיניק אוטו' TR 1999 04/09/2026 11:31:37
49919801 סקודה צ'כיה OCTAVIA 2018 04/09/2026 11:31:35
25663001 קאדילאק ארהב" ESCALADE 2019 04/09/2026 11:31:34
66053402 טויוטה צרפת YARIS 2021 04/09/2026 11:31:33
9986278 מרצדס בנץ גרמנ - 2015 04/09/2026 11:31:31
5176073 איסוזו יפן - 2012 04/09/2026 11:31:31
7316886 טויוטה טורקיה COROLLA 2017 04/09/2026 11:31:29
8833871 טויוטה יפן COROLLA 2010 04/09/2026 11:31:29
18291302 קיה קוריאה הדרומית SORENTO 2020 04/09/2026 11:31:27
4228731 מיצובישי תאילנד ATTRAGE 2014 04/09/2026 11:31:25
39293904 ג'יפ איטליה COMPASS 2026 04/09/2026 11:31:24
84840502 אלפא רומיאו איטליה TONALE 2023 04/09/2026 11:31:22
1849223 סובארו יפן IMPREZA 2000 04/09/2026 11:31:21
49011101 אאודי הונגריה TT COUPE 2018 04/09/2026 11:31:19
25746903 יונדאי קוריאה הדרומית KONA HYBRID 2023 04/09/2026 11:31:17
4052771 מזדה יפן MAZDA 6 2010 04/09/2026 11:31:17
4665020 יונדאי קוריאה ACCENT 1997 04/09/2026 11:31:15
9380054 ב מ וו ארהב" X6 XDRIVE 30D 2016 04/09/2026 11:31:15
62088801 סוזוקי יפן SWIFT 2019 04/09/2026 11:31:11
41298703 צ'רי סין FX 2023 04/09/2026 11:31:10
8070526 סיטרואן ספרד C4 PICASSO 2016 04/09/2026 11:31:09
50256802 קיה קוריאה הדרומית PICANTO 2021 04/09/2026 11:31:07
1412012 סאן יאנג טיואן - 2013 04/09/2026 11:31:05
11896001 טויוטה טורקיה C-HR HYBRID 2018 04/09/2026 11:31:04
3485662 מזדה יפן MAZDA 5 2007 04/09/2026 11:31:00
3349839 שברולט ארהב" MALIBU 2016 04/09/2026 11:30:59
61546701 קרייזלר ארהב" WRANGLER UNLIM 2019 04/09/2026 11:30:59
77315501 מיצובישי יפן OUTLANDER 2019 04/09/2026 11:30:57
3351570 לקסוס יפן LEXUS IS250 2010 04/09/2026 11:30:56
3265723 סובארו יפן IMPREZA NEW 2003 04/09/2026 11:30:55
57030403 יונדאי טורקיה I10 2024 04/09/2026 11:30:55
61065202 סקודה צ'כיה KODIAQ 2021 04/09/2026 11:30:53
3112231 יונדאי טורקיה I20 2014 04/09/2026 11:30:50
5512730 טויוטה יפן LAND CRUISER 2014 04/09/2026 11:30:48
9774687 פולאריס פולין - 2020 04/09/2026 11:30:47
2414232 שברולט קוריאה הדרומית TRAX 2014 04/09/2026 11:30:45
50882103 צ'רי סין TIGGO 8 PRO 2023 04/09/2026 11:30:45
5106328 קרייזלר ארהב" קרייזלר ארהב" 1997 04/09/2026 11:30:45
3409450 רנו ספרד CLIO II 2003 04/09/2026 11:30:43
52717003 סיטרואן צרפת JUMPY 2023 04/09/2026 11:30:38
76288901 טויוטה טורקיה COROLLA HSD SDN 2019 04/09/2026 11:30:37
8006014 סאנגיונג קוריאה הדרומית 320 RX REXTON 2006 04/09/2026 11:30:36
42650003 יונדאי קוריאה הדרומית KONA 2023 04/09/2026 11:30:35
8292965 פורד ספרד FOCUS 2009 04/09/2026 11:30:34
6178267 סובארו יפן B4 2010 04/09/2026 11:30:32
1154174 יונדאי צ'כיה I30 2010 04/09/2026 11:30:31
1901482 עצמי - 1982 04/09/2026 11:30:30
9312466 רנו ספרד MEGANE II 2008 04/09/2026 11:30:29
3797032 אקסיס טיוואן - 2015 04/09/2026 11:30:28
4712118 שברולט ארהב" CAVALIER 1998 04/09/2026 11:30:27
22077701 ניסאן יפן GT-R 2019 04/09/2026 11:30:25
4187237 יונדאי קוריאה הדרומית I25 2015 04/09/2026 11:30:20
43840404 בי ווי די סין SEAL U 2026 04/09/2026 11:30:17
1091175 פיג'ו סלובקיה 207 2011 04/09/2026 11:30:17
4899932 לקסוס יפן LEXUS RX350 2015 04/09/2026 11:30:15
4961008 הונדה בריטניה CR-V 2017 04/09/2026 11:30:12
2167660 שברולט קוריאה הדרומית AVEO 2006 04/09/2026 11:30:11
46089002 יונדאי טורקיה I20 2021 04/09/2026 11:30:10
24003703 סובארו יפן FORESTER 2022 04/09/2026 11:30:10
1180110 טויוטה יפן COROLLA 2001 04/09/2026 11:30:09
77255602 ימהה יפן - 2022 04/09/2026 11:30:09
1078050 טויוטה טורקיה COROLLA 2003 04/09/2026 11:30:07
8169712 סיטרואן פורטוגל BERLINGO 2013 04/09/2026 11:30:03
81174101 טויוטה יפן RAV 4 HYBRID 2019 04/09/2026 11:30:01
58270102 זירו מוטורסייל - 2021 04/09/2026 11:29:56
76091501 טויוטה יפן RAV 4 HYBRID 2019 04/09/2026 11:29:53
64521601 פיג'ו צרפת 3008 2019 04/09/2026 11:29:51
1586863 טויוטה יפן COROLLA 2008 04/09/2026 11:29:49
89222803 מזדה יפן MAZDA 3 2026 04/09/2026 11:29:49
8888805 סוזוקי-יפן - 1993 04/09/2026 11:29:47
3796878 הונדה תאילנד - 2012 04/09/2026 11:29:45
3989975 מזדה יפן MAZDA 3 2011 04/09/2026 11:29:41
1177464 שברולט ארהב" - 2008 04/09/2026 11:29:39
58324001 הונדה בריטניה CIVIC 5D 1.5 2019 04/09/2026 11:29:37
1514986 ב מ וו גרמניה - 1986 04/09/2026 11:29:33
1681912 פולקסווגן פולין CADDY GP 2012 04/09/2026 11:29:31
42494403 מיצובישי יפן OUTLANDER 2023 04/09/2026 11:29:30
3187733 דאצ'יה רומניה SANDERO 2016 04/09/2026 11:29:29
4961008 הונדה בריטניה CR-V 2017 04/09/2026 11:29:28
2878106 רנו ספרד - 1993 04/09/2026 11:29:27
84526003 קיי גי מוביליט REXTON 2024 04/09/2026 11:29:26
76848603 סקודה צ'כיה OCTAVIA 2024 04/09/2026 11:29:26
63661502 יונדאי הודו ACCENT 2022 04/09/2026 11:29:25
3351570 לקסוס יפן LEXUS IS250 2010 04/09/2026 11:29:24
18751501 ניסאן יפן INFINITI QX70 2017 04/09/2026 11:29:24
1133819 דייהו ד. קוריא - 1995 04/09/2026 11:29:23
79149102 גולדן דרגון סי - 2023 04/09/2026 11:29:21
79815901 פיגו איטליה - 2020 04/09/2026 11:29:20
3718839 שברולט קוריאה הדרומית ORLANDO 2016 04/09/2026 11:29:19
1907262 טויוטה יפן RAV 4 2007 04/09/2026 11:29:17
7705773 קואנג יאנג טיו - 2011 04/09/2026 11:29:17
72644804 לנדרובר סלובקיה DEFENDER 110 2026 04/09/2026 11:29:15
11283501 טויוטה טורקיה COROLLA 2017 04/09/2026 11:29:13
35923604 ג'אקו סין JAECOO7 2025 04/09/2026 11:29:12
11971801 טויוטה תאילנד HILUX 2018 04/09/2026 11:29:11
1044166 שברולט קוריאה הדרומית OPTRA 2008 04/09/2026 11:29:11
3387734 יונדאי קוריאה הדרומית I35 2015 04/09/2026 11:29:09
7102973 פולקסווגן מקסיקה JETTA 2011 04/09/2026 11:29:07
4263074 טויוטה יפן COROLLA 2011 04/09/2026 11:29:03
3568070 טויוטה יפן COROLLA 2010 04/09/2026 11:29:02
4961008 הונדה בריטניה CR-V 2017 04/09/2026 11:29:00
61532101 קרייזלר ארהב" WRANGLER UNLIM 2019 04/09/2026 11:28:59
17284602 סקודה צ'כיה OCTAVIA 2020 04/09/2026 11:28:59
9506061 פורשה גרמניה - 2008 04/09/2026 11:28:57
3766280 פולקסווגן גרמניה TIGUAN 2017 04/09/2026 11:28:55
51130502 קאדילאק ארהב" XT6 2021 04/09/2026 11:28:55
19417201 ניסאן יפן X-TRAIL 2018 04/09/2026 11:28:53
3799123 סובארו יפן IMPREZA NEW 2004 04/09/2026 11:28:53
14937702 הייגר סין - 2021 04/09/2026 11:28:51
74762602 ג'אק סין - 2022 04/09/2026 11:28:51
4377908 רנו צרפת - 2017 04/09/2026 11:28:51
61088502 אאודי גרמניה A7 SPORTBACK 2021 04/09/2026 11:28:49
2862269 מזדה יפן MAZDA 3 2009 04/09/2026 11:28:47
8414664 יונדאי קוריאה הדרומית TUCSON 2008 04/09/2026 11:28:45
2473101 סוזוקי-יפן - 1994 04/09/2026 11:28:45
9080778 טויוטה יפן HILUX 2003 04/09/2026 11:28:43
2830137 טויוטה צרפת YARIS 2016 04/09/2026 11:28:42
4277375 מזדה יפן MAZDA 3 2012 04/09/2026 11:28:41
63186103 מיצובישי יפן OUTLANDER 2024 04/09/2026 11:28:39
7902209 טויוטה יפן LAND CRUISER 2017 04/09/2026 11:28:37
4610468 הונדה יפן ACCORD 2009 04/09/2026 11:28:36
9255572 קרייזלר ארהב" - 2011 04/09/2026 11:28:35
45625002 סקודה צ'כיה OCTAVIA 2021 04/09/2026 11:28:34
1254011 יונדאי צ'כיה I30 2013 04/09/2026 11:28:33
2673980 סיאט ספרד IBIZA 2017 04/09/2026 11:28:33
7750471 טויוטה יפן HIACE 2010 04/09/2026 11:28:33
7750471 טויוטה יפן HIACE 2010 04/09/2026 11:28:32
וואטסאפ